Other Public Products
Issued by NWS Grand Forks, ND

Home | Current Version | Previous Version | Text Only | Print | Product List | Glossary Off
Versions: 1 2 3 4 5 6 7 8 9 10 11 12 13 14 15 16 17 18 19 20 21 22 23 24 25 26 27 28 29 30 31 32 33 34 35 36 37 38 39 40 41 42 43 44 45 46 47 48 49 50

000
FPUS83 KFGF 281110
OPUFGF
PRAIRIE TO PINES WEATHER ROUNDUP
NATIONAL WEATHER SERVICE EASTERN NORTH DAKOTA/GRAND FORKS ND
600 AM CDT THU AUG 28 2014

 **SATELLITE DATA USED TO AUGMENT SKY COVER AT AUTOMATED STATIONS**
 *****  WEATHER ACROSS EASTERN NORTH DAKOTA  *****

CITY           SKY/WX    TMP DP  RH WIND       PRES   REMARKS
GRAND FORKS    MOCLDY    60  58  92 SE8       29.98F
GRAND FORKS AF PTCLDY    60  60 100 S6        29.98F
GRAND CITY NWS   N/A     61 N/A N/A S7          N/A
BUXTON         NOT AVBL
DEVILS LAKE    CLEAR     61  55  82 SE5       29.94F
FARGO          CLOUDY    66  59  78 SE9       30.00S
WAHPETON ARPT  PTSUNNY   61  55  82 SE8       30.01S
$$

 *****  WEATHER ACROSS CENTRAL AND WESTERN NORTH DAKOTA  *****

CITY           SKY/WX    TMP DP  RH WIND       PRES   REMARKS
JAMESTOWN      CLOUDY    64  61  90 S7        29.96F
BISMARCK       MOCLDY    60  58  92 CALM      29.95F
MINOT          CLOUDY    63  61  93 S9        29.91S
MINOT AFB      MOCLDY    62  62 100 S7        29.90F
GARRISON         N/A     62  62 100 S5        29.94F
WILLISTON      CLEAR     59  57  93 SW5       29.90S
DICKINSON      PTCLDY    55  53  93 SE8       29.94F
HETTINGER      FOG       58  57  97 W3        29.98F VSB 1/4
$$

 *****  OTHER OBSERVATIONS NORTHEAST NORTH DAKOTA  *****

CITY           SKY/WX    TMP DP  RH WIND       PRES   REMARKS
WALHALLA         N/A     55  55 100 SE6       29.96F
LANGDON        FAIR      57  55  94 S8        29.97F
CAVALIER         N/A     55  54  94 S7        29.97S FOG
GRAFTON        FAIR      54  54 100 SE7       29.97F
CANDO          FOG       55  55 100 SE6       29.95F VSB 1/2
FORT TOTTEN    NOT AVBL
ROLLA          FOG       54  54 100 S8        29.96F VSB 1/4
RUGBY          FAIR      57  57 100 S5        29.94F
 ***** THE ABOVE OBSERVATIONS ARE NON NWS ARE NOT QUALITY
        CONTROLLED AND MAY MIS-REPORT RAIN FOR SNOW...
$$

 *****  OTHER OBSERVATIONS SOUTHEAST NORTH DAKOTA *****

CITY           SKY/WX    TMP DP  RH WIND       PRES   REMARKS
COOPERSTOWN    NOT AVBL
VALLEY CITY    CLOUDY    64  64 100 S7        29.98F
OAKES            N/A     66  66 100 SE8       29.97F
GWINNER        CLOUDY    64  64 100 E5        29.99F
SHEYENNE NWR     N/A     64  61  89 SE7       29.95S
BUFFALO        NOT AVBL
WYNDMERE       NOT AVBL
 ***** THE ABOVE OBSERVATIONS ARE NON NWS ARE NOT QUALITY
       CONTROLLED AND MAY MIS-REPORT RAIN FOR SNOW...
$$

  *****  WEATHER ACROSS NORTHERN MINNESOTA  *****

CITY           SKY/WX    TMP DP  RH WIND       PRES   REMARKS
FLAG ISLAND    PTCLDY    63  59  88 SW6       30.02F
WARROAD        CLEAR     52  48  87 S3        30.04F
ROSEAU         CLEAR     55  50  82 S6        30.03S
HALLOCK        CLEAR     59  55  88 S9        29.98F
THF RVR FALLS  CLEAR     55  55 100 SE7       30.02F
HALSTAD          N/A     63  61  93 SE8         N/A
FOSSTON        CLOUDY    57  55  94 SE5       30.05S
BAUDETTE       MOCLDY    49  47  93 SE3       30.05F
WASKISH        PTCLDY    54  52  94 CALM      30.07S
CROOKSTON      PTCLDY    61  57  88 SE8       30.01F
$$
  *****  WEATHER ACROSS CENTRAL AND WEST MINNESOTA  *****

CITY           SKY/WX    TMP DP  RH WIND       PRES   REMARKS
BEMIDJI        CLOUDY    53  52  95 CALM      30.07S
PARK RAPIDS    PTCLDY    56  55  97 SE5       30.07S
WADENA         CLOUDY    59  55  88 SE5       30.05F
DETROIT LAKES  CLOUDY    61  59  94 SE8       30.05F
MOORHEAD       MOCLDY    64  64 100 SE7       30.01S
FERGUS FALLS   MOCLDY    64  57  77 SE9       30.02F
ELBOW LAKE     PTSUNNY   61  59  91 SE8       30.03S
MORRIS MN      MOCLDY    63  61  94 SE8       30.02S
STAPLES        CLOUDY    57  55  94 SE3       30.06F
WHEATON        MOCLDY    57  55  94 E6        30.02F
$$
  *****  WEATHER ELSEWHERE ACROSS MINNESOTA  *****

CITY           SKY/WX    TMP DP  RH WIND       PRES   REMARKS
DULUTH         CLEAR     53  49  86 CALM      30.12S
INTRNTL FALLS  MOCLDY    46  45  96 SE3       30.08F FOG
ELY            CLEAR     41  39  93 CALM      30.13S
CLOQUET        FOG       48  46  93 CALM      30.12S VSB 1
BRAINERD       CLOUDY    60  55  83 S3        30.08F
HIBBING        FOG       46  44  93 CALM      30.12S VSB 1/4
ALEXANDRIA     MOCLDY    60  57  89 SE9       30.06F
SAINT CLOUD    CLEAR     61  56  83 SE5       30.07F
MINNEAPOLIS    PTCLDY    62  56  80 SE9       30.08F
$$

  *****  WEATHER ACROSS SOUTH DAKOTA  *****

CITY           SKY/WX    TMP DP  RH WIND       PRES   REMARKS
SIOUX FALLS    LGT RAIN  67  65  93 SE10      29.98F FOG
BROOKINGS      NOT AVBL
WATERTOWN      CLOUDY    65  63  93 SE7       29.99F
HURON          CLOUDY    67  66  97 E5        29.95S
SISSETON         N/A     63  62  97 S5        29.99F
ABERDEEN       CLOUDY    64  64 100 E5        29.96F
MITCHELL       RAIN      68  67  96 SE9       29.94F FOG
PIERRE         LGT RAIN  66  66 100 E3        29.92F FOG
MOBRIDGE       RAIN      66  66 100 SE7       29.93S FOG
RAPID CITY     CLOUDY    61  60  97 N7        30.01F
$$

  *****  SOME WEATHER IN NEARBY STATES *****

CITY           SKY/WX    TMP DP  RH WIND       PRES   REMARKS
GLASGOW MT     CLEAR     58  53  84 E9        29.89S
GREAT FALLS MT CLEAR     57  47  69 S10       30.00R
CHEYENNE WY    PTCLDY    52  45  77 W10       30.15F
SCOTTSBLUFF NE PTCLDY    58  58 100 W6        30.03F
OMAHA NE       TSTM      71  68  90 E16G24    29.95F FOG
DES MOINES IA  LGT RAIN  69  65  86 CALM      30.04S
DAVENPORT IA   MOCLDY    65  60  84 E12       30.09S
CHICAGO IL     MOCLDY    68  56  65 E8        30.13R
EAU CLAIRE WI  CLEAR     53  50  89 NE5       30.11F
LA CROSSE WI   PTCLDY    60  58  92 SE3       30.11S
$$

  *****  SOME NATIONAL WEATHER *****

CITY           SKY/WX    TMP DP  RH WIND       PRES   REMARKS
LA GUARDIA NY  PTCLDY    70  57  63 N9        29.87R
RALEIGH NC     MOCLDY    66  61  84 CALM      29.99R
ATLANTA GA     PTCLDY    69  63  81 CALM      30.06R
NEW ORLEANS LA MOCLDY    80  74  81 E3        29.97R
OKLAHOMA CITY  PTCLDY    69  64  84 S5        29.98S
ALBUQUERQUE NM PTCLDY    63  43  48 N7        30.23R
SALT LAKE CITY PTCLDY    60  53  77 SE7       30.20S
LOS ANGELES CA CLEAR     71  54  54 CALM      29.99F
BOISE ID       CLEAR     68  41  37 SE9       30.04R
SEATTLE WA     CLEAR     59  54  83 SW5       30.08R
$$

*** WEATHER ACROSS MANITOBA...SASKATCHEWAN AND ONTARIO ***
                ***ONTARIO***

CITY           SKY/WX    TMP DP  RH WIND       PRES   REMARKS
GERALDTON      CLEAR     39  37  93 S2        30.14S FOG
THUNDER BAY    CLEAR     41  41 100 W5        30.16R
SIOUX LOOKOUT  CLEAR     50  46  87 S5        30.08S
TORONTO        PTCLDY    55  50  82 N10       30.08R
BIG TROUT LK   CLOUDY    61  54  77 SW10G18   29.86F
PICKLE LAKE    PTCLDY    54  50  87 SW10      30.04
DRYDEN         CLEAR     54  48  82 S8        30.08S
KENORA         CLEAR     54  52  94 S6        30.05S
$$
                *** MANITOBA***

CITY           SKY/WX    TMP DP  RH WIND       PRES   REMARKS
BRANDON        PTCLDY    54  54 100 E5        29.90F
DAUPHIN        MOCLDY    68  57  68 SW13G22   29.79F
ISLAND LAKE    MOCLDY    64  54  68 S6        29.82S
PILOT MOUND      N/A     55  54  94 S8          N/A
THE PAS        CLOUDY    59  55  88 NW3       29.73F
THOMPSON       PTCLDY    55  55 100 W6        29.70
WINNIPEG       MOCLDY    59  55  88 S12G18    29.96F
LYNN LAKE      CLEAR     48  48 100 MISG      29.73R
GILLAM         MOCLDY    59  59 100 SW9       29.65R
$$
                ***SASKATCHEWAN***

CITY           SKY/WX    TMP DP  RH WIND       PRES   REMARKS
ESTEVAN        PTCLDY    61  57  88 SW7       29.87S
KINDERSLEY     PTCLDY    54  52  94 NE8       29.86S
LLOYDMINSTER   CLOUDY    57  54  88 W13G18    29.89R
PRINCE ALBERT  PTCLDY    52  52 100 W2        29.81S
REGINA         CLEAR     52  50  93 S7        29.82S
YORKTON        PTCLDY    55  54  94 SE3       29.80S


USA.gov is the U.S. government's official web portal to all federal, state and local government web resources and services.